#timestamp,LO_Frequency,Hit,Temp,Hum 
1487458815.1,286047010.6,N,0.0,0.0
1487458816.0,286047010.6,N,0.0,0.0
1487458835.8,286047010.6,N,0.0,0.0
1487458855.7,286047006.6,N,0.0,0.0
1487458875.5,286047007.4,N,0.0,0.0
1487458895.4,286047007.0,N,0.0,0.0
1487458915.3,286047008.7,N,0.0,0.0
1487458935.1,286047007.4,N,0.0,0.0
1487458936.0,286047007.4,N,0.0,0.0
1487458955.8,286047006.7,N,0.0,0.0
1487458975.7,286047012.3,N,0.0,0.0
1487458995.5,286047012.0,N,0.0,0.0
1487459015.3,286047012.4,N,0.0,0.0
1487459035.3,286047009.6,N,0.0,0.0
1487459055.1,286047012.0,N,0.0,0.0
1487459075.3,286047012.2,N,0.0,0.0
1487459095.1,286047010.5,N,0.0,0.0
1487459096.0,286047010.5,N,0.0,0.0
1487459115.8,286047011.7,N,0.0,0.0
1487459135.7,286047012.0,N,0.0,0.0
1487459155.5,286047010.1,N,0.0,0.0
1487459175.3,286047010.2,N,0.0,0.0
1487459195.2,286047011.1,N,0.0,0.0
1487459215.9,286047009.7,N,0.0,0.0
1487459235.7,286047012.4,N,0.0,0.0
1487459255.5,286047008.4,N,0.0,0.0
1487459275.3,286047007.8,N,0.0,0.0
1487459295.2,286047007.3,N,0.0,0.0
1487459315.9,286047006.2,N,0.0,0.0
1487459335.7,286047008.4,N,0.0,0.0
1487459355.6,286047011.5,N,0.0,0.0
1487459375.4,286047014.0,Y,0.0,0.0
1487459395.2,286047004.7,N,0.0,0.0
1487459415.1,286047009.0,N,0.0,0.0
1487459416.0,286047009.0,N,0.0,0.0
1487459435.8,286047009.2,N,0.0,0.0
1487459455.6,286047008.4,N,0.0,0.0
1487459475.5,286047004.7,N,0.0,0.0
1487459495.3,286047005.3,N,0.0,0.0
1487459515.1,286047003.8,N,0.0,0.0
1487459535.9,286047003.2,N,0.0,0.0
1487459555.7,286047005.2,N,0.0,0.0
1487459575.5,286047007.5,N,0.0,0.0
1487459595.4,286047007.1,N,0.0,0.0
1487459615.2,286047006.2,N,0.0,0.0
1487459635.0,286047009.0,N,0.0,0.0
1487459635.9,286047009.0,N,0.0,0.0
1487459655.0,286047010.4,N,0.0,0.0
1487459655.9,286047010.4,N,0.0,0.0
1487459675.8,286047011.9,N,0.0,0.0
1487459695.6,286047011.3,N,0.0,0.0
1487459715.4,286047015.2,Y,0.0,0.0
1487459735.3,286047003.3,N,0.0,0.0
1487459755.1,286047006.4,N,0.0,0.0
1487459756.0,286047006.4,N,0.0,0.0
1487459775.8,286047006.6,N,0.0,0.0
1487459795.7,286047006.5,N,0.0,0.0
1487459815.5,286047008.7,N,0.0,0.0
1487459835.3,286047008.8,N,0.0,0.0
1487459855.2,286047006.7,N,0.0,0.0
1487459875.4,286047006.4,N,0.0,0.0
1487459895.2,286047007.7,N,0.0,0.0
1487459915.1,286047008.3,N,0.0,0.0
1487459916.0,286047008.3,N,0.0,0.0
1487459935.8,286047008.6,N,0.0,0.0
1487459955.6,286047009.2,N,0.0,0.0
1487459975.5,286047004.9,N,0.0,0.0
1487459995.3,286047008.1,N,0.0,0.0
1487460015.1,286047010.7,Y,0.0,0.0
1487460035.9,286046998.2,N,0.0,0.0
1487460055.7,286047001.1,N,0.0,0.0
1487460075.1,286046998.1,N,0.0,0.0
1487460076.0,286046998.1,N,0.0,0.0
1487460095.8,286046998.2,N,0.0,0.0
1487460115.7,286047001.0,N,0.0,0.0
1487460135.5,286047002.7,N,0.0,0.0
1487460155.3,286047001.2,N,0.0,0.0
1487460175.1,286047001.1,N,0.0,0.0
1487460195.3,286046999.0,N,0.0,0.0
1487460215.1,286046999.0,N,0.0,0.0
1487460235.9,286047000.4,N,0.0,0.0
1487460255.7,286047001.2,N,0.0,0.0
1487460275.5,286047002.7,N,0.0,0.0
1487460295.3,286047001.8,N,0.0,0.0
1487460315.2,286047004.4,N,0.0,0.0
1487460335.0,286047000.1,N,0.0,0.0
1487460335.9,286047000.1,N,0.0,0.0
1487460355.7,286047004.4,N,0.0,0.0
1487460375.6,286047003.6,N,0.0,0.0
1487460395.3,286047003.4,N,0.0,0.0
1487460415.2,286047003.7,N,0.0,0.0
1487460435.9,286047003.6,N,0.0,0.0
1487460455.7,286047001.7,N,0.0,0.0
1487460475.6,286047004.1,N,0.0,0.0
1487460495.4,286047003.6,N,0.0,0.0
1487460515.2,286047001.6,N,0.0,0.0
1487460535.1,286047003.7,N,0.0,0.0
1487460536.0,286047003.7,N,0.0,0.0
1487460555.8,286047003.9,N,0.0,0.0
1487460575.6,286047001.3,N,0.0,0.0
1487460595.5,286047005.6,N,0.0,0.0
1487460615.3,286047004.9,N,0.0,0.0
1487460635.1,286047007.0,N,0.0,0.0
1487460655.9,286047010.1,N,0.0,0.0
1487460675.7,286047010.8,N,0.0,0.0
1487460695.5,286047011.6,Y,0.0,0.0
1487460715.4,286047001.6,N,0.0,0.0
1487460735.2,286047001.6,N,0.0,0.0
1487460755.2,286047000.1,N,0.0,0.0
1487460775.1,286047000.4,N,0.0,0.0
1487460776.0,286047000.4,N,0.0,0.0
1487460795.8,286047001.9,N,0.0,0.0
1487460815.8,286046999.9,N,0.0,0.0
1487460835.6,286046998.9,N,0.0,0.0
1487460855.5,286046997.6,N,0.0,0.0
1487460875.3,286046995.0,N,0.0,0.0
1487460895.1,286047001.2,N,0.0,0.0
1487460915.9,286047002.6,N,0.0,0.0
1487460935.7,286047002.4,N,0.0,0.0
1487460955.5,286047003.2,N,0.0,0.0
1487460975.4,286047003.2,N,0.0,0.0
1487460995.2,286047007.4,N,0.0,0.0
1487461015.0,286047008.6,N,0.0,0.0
1487461035.3,286047006.8,N,0.0,0.0
1487461055.1,286047010.3,N,0.0,0.0
1487461075.9,286047007.6,N,0.0,0.0
1487461095.7,286047006.7,N,0.0,0.0
1487461115.5,286047004.7,N,0.0,0.0
1487461135.4,286047008.8,N,0.0,0.0
1487461155.2,286047004.7,N,0.0,0.0
1487461175.0,286047007.6,N,0.0,0.0
1487461175.9,286047007.6,N,0.0,0.0
1487461195.3,286047004.5,N,0.0,0.0
1487461215.3,286047004.7,N,0.0,0.0
1487461235.3,286047003.8,N,0.0,0.0
1487461255.5,286047003.6,N,0.0,0.0
1487461275.3,286047005.6,N,0.0,0.0
1487461315.8,286047008.0,N,0.0,0.0
1487461335.6,286047007.8,N,0.0,0.0
1487461355.5,286047008.8,N,0.0,0.0
1487461375.4,286047007.4,N,0.0,0.0
1487461395.2,286047007.4,N,0.0,0.0
1487461415.0,286047007.1,N,0.0,0.0
1487461415.9,286047007.1,N,0.0,0.0
1487461435.7,286047008.9,N,0.0,0.0
1487461455.6,286047006.4,N,0.0,0.0
1487461475.4,286047005.6,N,0.0,0.0
1487461495.2,286047004.9,N,0.0,0.0
1487461515.8,286047006.3,N,0.0,0.0
1487461535.7,286047007.3,N,0.0,0.0
1487461555.1,286047008.7,N,0.0,0.0
1487461575.8,286047010.7,N,0.0,0.0
1487461595.7,286047008.2,N,0.0,0.0
1487461615.5,286047008.3,N,0.0,0.0
1487461635.3,286047008.4,N,0.0,0.0
1487461655.2,286047008.9,N,0.0,0.0
1487461675.9,286047010.5,N,0.0,0.0
1487461695.7,286047007.8,N,0.0,0.0
1487461715.6,286047009.8,N,0.0,0.0
1487461735.4,286047013.8,Y,0.0,0.0
1487461755.2,286047006.2,N,0.0,0.0
1487461775.1,286047008.7,N,0.0,0.0
1487461795.2,286047006.8,N,0.0,0.0
1487461815.0,286047008.0,N,0.0,0.0
1487461815.9,286047008.0,N,0.0,0.0
1487461835.8,286047008.2,N,0.0,0.0
1487461875.1,286047007.8,N,0.0,0.0
1487461895.8,286047010.4,N,0.0,0.0
1487461915.7,286047005.8,N,0.0,0.0
1487461935.5,286047005.9,N,0.0,0.0
1487461955.3,286047005.9,N,0.0,0.0
1487461975.2,286047005.9,N,0.0,0.0
1487461995.9,286047006.9,N,0.0,0.0
1487462015.7,286047006.6,N,0.0,0.0
1487462035.6,286047007.9,N,0.0,0.0
1487462055.4,286047008.0,N,0.0,0.0
1487462075.7,286047009.0,N,0.0,0.0
1487462095.6,286047008.9,N,0.0,0.0
1487462115.4,286047008.6,N,0.0,0.0
1487462135.2,286047008.2,N,0.0,0.0
1487462155.1,286047010.1,N,0.0,0.0
1487462175.2,286047010.2,N,0.0,0.0
1487462195.0,286047007.9,N,0.0,0.0
1487462195.9,286047007.9,N,0.0,0.0
1487462215.8,286047008.3,N,0.0,0.0
1487462235.6,286047009.2,N,0.0,0.0
1487462255.4,286047012.4,Y,0.0,0.0
1487462275.6,286047004.9,N,0.0,0.0
1487462295.4,286047006.7,N,0.0,0.0
1487462315.1,286047004.4,N,0.0,0.0
1487462316.0,286047004.4,N,0.0,0.0
1487462335.8,286047000.4,N,0.0,0.0
1487462355.6,286047002.0,N,0.0,0.0
1487462375.5,286047002.2,N,0.0,0.0
1487462395.3,286047002.8,N,0.0,0.0
